Tracking 28794 objects as of 19-Apr-2024
HD Live streaming from Space Station
objects crossing your sky now

COSMOS 1947 (GLONASS)

Track COSMOS 1947 (GLONASS) now!
COSMOS 1947 (GLONASS) is classified as:


NORAD ID: 19164
Int'l Code: 1988-043B
Perigee: 19,074.3 km
Apogee: 19,199.5 km
Inclination: 64.6 °
Period: 675.7 minutes
Semi major axis: 25507 km
RCS: 1.5563 m2 (large)
Launch date: May 21, 1988
Source: Commonwealth of Independent States (former USSR) (CIS)
Launch site: TYURATAM MISSILE AND SPACE COMPLEX (TTMTR)
Your satellite tracking list
Your tracking list is empty




NASA's NSSDC Master Catalog

Two Line Element Set (TLE):
1 19164U 88043B   24110.60478782  .00000068  00000-0  00000+0 0  9997
2 19164  64.5586 100.5333 0024549 225.1615 319.8663  2.13103863274565
Source of the keplerian elements: AFSPC